Regional Weather Roundup
Issued by NWS

Home | Current Version | Previous Version | Graphics & Text | Print | Product List | Glossary On
Versions: 1 2 3 4 5 6 7 8 9 10 11 12 13 14 15 16 17 18 19 20 21 22 23 24 25 26 27 28 29 30 31 32 33 34 35 36 37 38 39 40 41 42 43 44 45 46 47 48 49 50
000
ASUS43 KOAX 181902
RWRNE

WEATHER ROUNDUP FOR NEBRASKA
NATIONAL WEATHER SERVICE OMAHA NE
100 PM CST THU JAN 18 2018

NOTES: SATELLITE DATA IS BEING USED TO AUGMENT CLOUD COVER ABOVE
       12000 FEET.
       "FAIR" INDICATES FEW OR NO CLOUDS BELOW 12,000 FEET WITH NO
       SIGNIFICANT WEATHER AND/OR OBSTRUCTIONS TO VISIBILITY.


NEZ001>004-019>022-054>056-182000-
NEBRASKA PANHANDLE

CITY           SKY/WX    TMP DP  RH WIND       PRES   REMARKS
SCOTTSBLUFF    CLOUDY    45  30  55 N3        29.97F
ALLIANCE       CLOUDY    43  30  60 MISG      29.95F
CHADRON        CLOUDY    46  29  51 SW5       29.93F
GORDON         FAIR      49  26  39 W13       29.91F
KIMBALL        CLOUDY    58  17  20 W14       30.01F
SIDNEY         PTSUNNY   60  18  19 W15       29.99F
$$

NEZ057>060-069>072-079>082-182000-
SOUTHWEST NEBRASKA

CITY           SKY/WX    TMP DP  RH WIND       PRES   REMARKS
NORTH PLATTE   CLOUDY    43  27  53 W9        29.98F
IMPERIAL       CLOUDY    49  25  39 W8        30.00F
LEXINGTON      CLOUDY    47  29  50 W9        29.97F
MCCOOK         CLOUDY    47  23  38 W9        30.00
OGALLALA       CLOUDY    43  28  55 W5        29.99F
$$

NEZ005>010-023>029-035>040-094-182000-
NORTH CENTRAL NEBRASKA

CITY           SKY/WX    TMP DP  RH WIND       PRES   REMARKS
VALENTINE      CLOUDY    41  29  62 SW8       29.88F
AINSWORTH      CLOUDY    42  30  62 W8        29.90F
BROKEN BOW     CLOUDY    40  27  59 W7        29.93F
O`NEILL        CLOUDY    41  29  61 SW6       29.90F
ORD            CLOUDY    45  27  49 W8        29.92F
THEDFORD       CLOUDY    45  30  55 W8        29.92F
$$

NEZ041-046>049-061>064-073>077-083>087-182000-
SOUTH CENTRAL NEBRASKA

CITY           SKY/WX    TMP DP  RH WIND       PRES   REMARKS
GRAND ISLAND   CLOUDY    40  27  59 SW12      29.96F WCI  33
AURORA         CLOUDY    40  28  62 SW12      29.96F WCI  32
HASTINGS       CLOUDY    39  27  62 SW10G18   29.97F WCI  32
HEBRON         CLOUDY    35  22  61 SW7       30.04F WCI  29
HOLDREGE       CLOUDY    44  28  52 SW9       29.97F
KEARNEY        CLOUDY    40  28  62 SW13      29.96  WCI  32
YORK           CLOUDY    39  28  65 SW12      29.97F WCI  32
$$

NEZ011>018-030>034-042>045-182000-
NORTHEAST NEBRASKA

CITY           SKY/WX    TMP DP  RH WIND       PRES   REMARKS
NORFOLK        CLOUDY    39  27  62 S8        29.90  WCI  33
ALBION         CLOUDY    44  27  52 SW8       29.92F
BLAIR          CLOUDY    37  20  51 S17       29.98F WCI  27
COLUMBUS       CLOUDY    45  25  45 S14       29.95
FREMONT        CLOUDY    39  21  48 S10       29.98F WCI  32
TEKAMAH        CLOUDY    38  22  52 S15       29.97F WCI  29
WAYNE          CLOUDY    40  24  54 SW14      29.91F WCI  32
$$

NEZ050>053-065>068-078-088>093-182000-
SOUTHEAST NEBRASKA

CITY           SKY/WX    TMP DP  RH WIND       PRES   REMARKS
LINCOLN        CLOUDY    40  19  43 S12       30.02  WCI  33
OMAHA EPPLEY   CLOUDY    34  18  52 S13       30.02F WCI  25
BEATRICE       CLOUDY    33  20  59 S9        30.06F WCI  26
FALLS CITY     SUNNY     35  18  49 SW9       30.09F WCI  28
NEBRASKA CITY  SUNNY     32  20  61 S10       30.06F WCI  23
PLATTSMOUTH    SUNNY     31  19  61 S13       30.04F WCI  21
$$

NEZ044-045-051>053-067-182000-
OMAHA AREA

CITY           SKY/WX    TMP DP  RH WIND       PRES   REMARKS
OMAHA EPPLEY   CLOUDY    34  18  52 S13       30.02F WCI  25
BLAIR          CLOUDY    37  20  51 S17       29.98F WCI  27
FREMONT        CLOUDY    39  21  48 S10       29.98F WCI  32
MILLARD        CLOUDY    37  20  50 S9        30.01F WCI  30
OFFUTT AFB     SUNNY     32  18  56 S10       30.02  WCI  24
PLATTSMOUTH    SUNNY     31  19  61 S13       30.04F WCI  21
WAHOO          FAIR      40  21  46 S14       29.99F WCI  32
$$




USA.gov is the U.S. government's official web portal to all federal, state and local government web resources and services.